Weather History for KPOV - January, 2013

Change the Weather History Date:

Friday, January 25, 2013

  Actual Average (KCAK) Record (KCAK)
Temperature  
Mean Temperature 13 °F 26 °F  
Max Temperature 17 °F 33 °F 70 °F (1950)
Min Temperature 9 °F 19 °F -14 °F (1897)
Degree Days  
Heating Degree Days 52 39  
Month to date heating degree days 973  
Since 1 July heating degree days 3303  
Cooling Degree Days 0 0  
Month to date cooling degree days 0  
Year to date cooling degree days 0  
Moisture  
Dew Point 8 °F    
Average Humidity 77    
Maximum Humidity 83    
Minimum Humidity 67    
Precipitation  
Precipitation 0.00 in 0.08 in - ()
Month to date precipitation 2.13  
Year to date precipitation 2.13  
Snow  
Snow 0.00 in 0.40 in - ()
Month to date snowfall 10.0  
Since 1 July snowfall 23.6  
Snow Depth -    
Sea Level Pressure  
Sea Level Pressure 30.18 in    
Wind  
Wind Speed 2 mph (ESE)    
Max Wind Speed 9 mph    
Max Gust Speed -    
Visibility 6 miles    
Events Snow    
T = Trace of Precipitation, MM = Missing Value Source: NWS Daily Summary

Daily Weather History Graph

Daily Weather History Graph

Search for Another Location

Airport or City:

Trip Planner

Search our weather history database for the weather conditions in past years. The results will help you decide how hot, cold, wet, or windy it might be!

Date:

Astronomy

Jan. 25, 2013 Rise Set
Actual Time 7:42 AM EST 5:33 PM EST
Civil Twilight 7:12 AM EST 6:02 PM EST
Nautical Twilight 6:38 AM EST 6:36 PM EST
Astronomical Twilight 6:06 AM EST 7:08 PM EST
Moon 4:29 PM EST (1/25) 6:20 AM EST (1/25)
Length of Visible Light 10h 50m
Length of Day
9h 51m
Waxing Gibbous, 98% of the Moon is Illuminated
Jan 25
Waxing Gibbous
Jan 26
Full
Feb 3
Last Quarter
Feb 10
New
Feb 17
First Quarter

Hourly Weather History & Observations

Time (EST) Temp. Windchill Dew Point Humidity Pressure Visibility Wind Dir Wind Speed Gust Speed Precip Events Conditions
12:15 AM 10.2 °F - 4.5 °F 78% 30.45 in 10.0 mi Calm Calm - N/A   Clear
12:35 AM 10.0 °F - 4.6 °F 79% 30.45 in 10.0 mi Calm Calm - N/A   Clear
12:55 AM 9.9 °F - 5.0 °F 81% 30.44 in 10.0 mi Calm Calm - N/A   Clear
1:15 AM 11.3 °F - 4.8 °F 75% 30.43 in 10.0 mi Calm Calm - N/A   Clear
1:35 AM 11.1 °F - 5.5 °F 78% 30.42 in 10.0 mi Calm Calm - N/A   Clear
1:56 AM 10.9 °F - 5.0 °F 77% 30.42 in 10.0 mi Calm Calm - N/A   Clear
2:15 AM 10.8 °F - 5.9 °F 81% 30.42 in 10.0 mi Calm Calm - N/A   Scattered Clouds
2:35 AM 10.9 °F - 6.1 °F 81% 30.42 in 10.0 mi Calm Calm - N/A   Scattered Clouds
2:55 AM 11.3 °F - 6.3 °F 80% 30.41 in 10.0 mi Calm Calm - N/A   Mostly Cloudy
3:15 AM 11.5 °F - 5.9 °F 78% 30.40 in 10.0 mi Calm Calm - N/A   Mostly Cloudy
3:35 AM 12.0 °F - 5.9 °F 76% 30.39 in 10.0 mi Calm Calm - N/A   Overcast
3:55 AM 12.2 °F - 6.1 °F 76% 30.39 in 10.0 mi Calm Calm - N/A   Overcast
4:15 AM 12.2 °F 6.1 °F 6.4 °F 78% 30.37 in 10.0 mi ESE 3.5 mph - N/A   Overcast
4:35 AM 12.7 °F - 6.6 °F 77% 30.37 in 10.0 mi Calm Calm - N/A   Overcast
4:56 AM 12.9 °F - 6.6 °F 76% 30.36 in 10.0 mi Calm Calm - N/A   Overcast
5:15 AM 13.1 °F - 6.6 °F 75% 30.34 in 10.0 mi Calm Calm - N/A   Overcast
5:35 AM 13.1 °F 7.1 °F 6.6 °F 75% 30.34 in 10.0 mi SE 3.5 mph - N/A   Overcast
5:56 AM 13.1 °F 7.1 °F 6.6 °F 75% 30.31 in 10.0 mi SE 3.5 mph - N/A   Overcast
6:15 AM 13.5 °F 4.4 °F 6.6 °F 74% 30.30 in 10.0 mi ESE 5.8 mph - N/A   Overcast
6:35 AM 13.5 °F 4.4 °F 6.4 °F 74% 30.28 in 10.0 mi SE 5.8 mph - N/A   Overcast
6:55 AM 13.5 °F 4.4 °F 5.9 °F 72% 30.27 in 10.0 mi ESE 5.8 mph - N/A   Overcast
7:15 AM 13.5 °F 1.3 °F 5.5 °F 71% 30.25 in 10.0 mi ESE 9.2 mph - N/A   Overcast
7:35 AM 13.5 °F 4.4 °F 5.4 °F 70% 30.23 in 10.0 mi ESE 5.8 mph - N/A   Overcast
7:55 AM 13.6 °F 4.6 °F 4.8 °F 68% 30.22 in 10.0 mi ESE 5.8 mph - N/A   Overcast
8:35 AM 13.8 °F 2.7 °F 5.0 °F 68% 30.21 in 10.0 mi ESE 8.1 mph - N/A   Overcast
8:56 AM 14.0 °F 6.5 °F 4.8 °F 67% 30.22 in 10.0 mi SSE 4.6 mph - N/A   Overcast
9:15 AM 14.2 °F 6.7 °F 5.0 °F 67% 30.22 in 10.0 mi ESE 4.6 mph - N/A   Overcast
9:35 AM 14.0 °F 5.1 °F 4.8 °F 67% 30.21 in 7.0 mi ESE 5.8 mph - N/A Snow Light Snow
9:48 AM 14.0 °F 2.9 °F 5.5 °F 69% 30.20 in 5.0 mi ESE 8.1 mph - N/A   Haze
10:15 AM 14.5 °F 4.6 °F 5.9 °F 69% 30.19 in 4.0 mi ESE 6.9 mph - N/A Snow Light Snow
10:35 AM 14.7 °F 5.9 °F 6.3 °F 69% 30.18 in 5.0 mi SE 5.8 mph - N/A Snow Light Snow
10:55 AM 14.0 °F 5.1 °F 8.4 °F 78% 30.16 in 1.0 mi East 5.8 mph - N/A Snow Light Snow
11:15 AM 14.0 °F 2.9 °F 9.1 °F 81% 30.15 in 0.8 mi ESE 8.1 mph - N/A Snow Light Snow
11:35 AM 14.0 °F 3.9 °F 9.5 °F 82% 30.13 in 0.8 mi ESE 6.9 mph - N/A Snow Light Snow
11:55 AM 14.0 °F 2.0 °F 9.5 °F 82% 30.11 in 0.8 mi ESE 9.2 mph - N/A Snow Light Snow
12:15 PM 14.5 °F 2.7 °F 9.9 °F 82% 30.10 in 0.5 mi ESE 9.2 mph - N/A Snow Light Snow
12:35 PM 14.7 °F 5.9 °F 10.4 °F 83% 30.10 in 0.5 mi SE 5.8 mph - N/A Snow Light Snow
12:56 PM 14.4 °F 5.5 °F 10.0 °F 83% 30.08 in 0.5 mi ESE 5.8 mph - N/A Snow Snow
1:15 PM 15.3 °F 7.9 °F 10.4 °F 81% 30.07 in 0.8 mi East 4.6 mph - N/A Snow Light Snow
1:35 PM 15.4 °F 6.8 °F 10.4 °F 80% 30.06 in 0.8 mi ESE 5.8 mph - N/A Snow Light Snow
1:55 PM 15.6 °F 5.9 °F 10.2 °F 79% 30.04 in 1.2 mi East 6.9 mph - N/A Snow Light Snow
2:15 PM 16.0 °F 7.4 °F 10.2 °F 78% 30.03 in 1.8 mi ESE 5.8 mph - N/A Snow Light Snow
2:35 PM 15.8 °F 5.1 °F 9.7 °F 77% 30.02 in 2.5 mi ESE 8.1 mph - N/A Snow Light Snow
2:55 PM 17.1 °F 10.0 °F 10.9 °F 77% 30.01 in 2.0 mi East 4.6 mph - N/A Snow Light Snow
3:15 PM 17.1 °F 8.7 °F 10.9 °F 77% 30.01 in 1.8 mi East 5.8 mph - N/A Snow Light Snow
3:35 PM 16.7 °F 8.3 °F 10.4 °F 76% 30.01 in 2.0 mi ESE 5.8 mph - N/A Snow Light Snow
3:55 PM 16.7 °F 7.2 °F 10.6 °F 77% 29.99 in 2.5 mi ESE 6.9 mph - N/A Snow Light Snow
4:15 PM 16.7 °F 9.6 °F 10.6 °F 77% 29.99 in 3.0 mi SE 4.6 mph - N/A Snow Light Snow
4:35 PM 16.5 °F 11.0 °F 10.4 °F 77% 29.99 in 5.0 mi SE 3.5 mph - N/A Snow Light Snow
4:55 PM 16.3 °F 10.8 °F 10.4 °F 77% 29.99 in 3.0 mi SE 3.5 mph - N/A Snow Light Snow
5:15 PM 16.3 °F - 10.6 °F 78% 29.99 in 2.5 mi Calm Calm - N/A Snow Light Snow
5:35 PM 16.2 °F - 10.4 °F 78% 30.00 in 2.5 mi Calm Calm - N/A Snow Light Snow
5:55 PM 15.8 °F - 10.4 °F 79% 30.00 in 5.0 mi Calm Calm - N/A Snow Light Snow
6:15 PM 15.8 °F - 10.8 °F 80% 30.00 in 3.0 mi Calm Calm - N/A Snow Light Snow
6:35 PM 15.8 °F - 10.9 °F 81% 30.01 in 4.0 mi Calm Calm - N/A Snow Light Snow
6:55 PM 15.8 °F - 11.1 °F 82% 30.00 in 3.0 mi Calm Calm - N/A Snow Light Snow
7:15 PM 15.8 °F - 11.3 °F 82% 30.00 in 4.0 mi Calm Calm - N/A Snow Light Snow
7:35 PM 15.8 °F - 11.3 °F 82% 29.99 in 7.0 mi Calm Calm - N/A Snow Light Snow
7:56 PM 15.8 °F - 11.1 °F 82% 30.00 in 7.0 mi Calm Calm - N/A Snow Light Snow
8:15 PM 15.8 °F - 11.1 °F 82% 30.00 in 10.0 mi Calm Calm - N/A Snow Light Snow
8:35 PM 15.6 °F - 11.3 °F 83% 30.00 in 7.0 mi Calm Calm - N/A Snow Light Snow